Regional Weather Roundup
Issued by NWS

Home | Current Version | Previous Version | Text Only | Print | Product List | Glossary Off
Versions: 1 2 3 4 5 6 7 8 9 10 11 12 13 14 15 16 17 18 19 20 21 22 23 24 25 26 27 28 29 30 31 32 33 34 35 36 37 38 39 40 41 42 43 44 45 46 47 48 49 50

000
ASUS45 KABQ 310001
RWRNM
WEATHER ROUNDUP FOR NEW MEXICO
NATIONAL WEATHER SERVICE ALBUQUERQUE NM
600 PM MDT SAT AUG 30 2014

NOTE: "FAIR" MEANS FEW OR NO CLOUDS BELOW 12,000 FEET AGL WITH NO
       SIGNIFICANT WEATHER OR OBSTRUCTIONS TO VISION.

      THIS PRODUCT IS RELEASED AS TWO VERSIONS.  ONE VERSION NEAR
      THE TOP OF THE HOUR CONTAINING PRELIMINARY DATA FROM ALBUQUERQUE
      AND OTHER STATIONS.  A FINAL VERSION WITH ADDITIONAL DATA IS
      ISSUED ABOUT 10 MINUTES AFTER THE HOUR.

NMZ501-503-504-510>518-310100-
NORTHWEST PLATEAU/NORTHCENTRAL MOUNTAINS

CITY           SKY/WX    TMP DP  RH WIND       PRES   REMARKS
FARMINGTON     SUNNY     85  34  16 SW7       30.02F
6HR MIN TEMP:  80; 6HR MAX TEMP:  89;

LOS ALAMOS     MOSUNNY   79  31  17 SW5       30.18S
SANTA FE       SUNNY     83  36  18 SW7       30.10F
6HR MIN TEMP:  77; 6HR MAX TEMP:  86;

ANGEL FIRE     MOCLDY    72  33  24 SW8       30.26S

$$
NMZ402-403-502-505>509-310100-
WESTCENTRAL MOUNTAINS/SOUTHWEST MOUNTAINS

CITY           SKY/WX    TMP DP  RH WIND       PRES   REMARKS
GALLUP         MOSUNNY   84  24  11 SW13G24   30.12F
6HR MIN TEMP:  83; 6HR MAX TEMP:  88;

SILVER CITY    SUNNY     90  36  14 SW6       30.09F

$$
NMZ407-409-411-412-310100-
SOUTHERN DESERTS

CITY           SKY/WX    TMP DP  RH WIND       PRES   REMARKS
LORDSBURG      FAIR      91  41  17 W5        29.98S
DEMING         SUNNY     94  36  13 W7        29.98F
6HR MIN TEMP:  89; 6HR MAX TEMP:  95;

LAS CRUCES     SUNNY     93  37  13 S5        30.01S
HOLLOMAN AFB   MOSUNNY   94  40  15 S5        29.97S
ALAMOGORDO     SUNNY     90  39  17 S12       29.99F
T OR C         SUNNY     92  39  15 S15G23    30.00F
6HR MIN TEMP:  85; 6HR MAX TEMP:  94;


$$
NMZ519>523-310100-
CENTRAL VALLEYS/CENTRAL HIGHLANDS

CITY           SKY/WX    TMP DP  RH WIND       PRES   REMARKS
ALBUQUERQUE    PTSUNNY   89  40  17 S9        30.04F
6HR MIN TEMP:  80; 6HR MAX TEMP:  90;

DOUBLE EAGLE   PTSUNNY   86  39  19 S7        30.07F
CLINES CORNERS MOSUNNY   80  36  20 W14G22    30.18S
6HR MIN TEMP:  75; 6HR MAX TEMP:  83;

BELEN          FAIR      89  40  18 S10G18    30.02S
6HR MIN TEMP:  82; 6HR MAX TEMP:  92;

SOCORRO        FAIR      91  40  16 S10G18    30.00S
6HR MIN TEMP:  84; 6HR MAX TEMP:  93;


$$
NMZ524>526-539-540-310100-
SOUTHCENTRAL MOUNTAINS

CITY           SKY/WX    TMP DP  RH WIND       PRES   REMARKS
RUIDOSO        NOT AVBL

$$
NMZ527>531-310100-
NORTHEAST HIGHLANDS/NORTHEAST PLAINS

CITY           SKY/WX    TMP DP  RH WIND       PRES   REMARKS
LAS VEGAS      MOSUNNY   81  36  19 W18G24    30.15S
6HR MIN TEMP:  77; 6HR MAX TEMP:  83;

RATON          MOSUNNY   84  34  16 S13G22    30.04S
6HR MIN TEMP:  76; 6HR MAX TEMP:  87;

CLAYTON        SUNNY     88  43  20 S16       29.98
6HR MIN TEMP:  84; 6HR MAX TEMP:  89;


$$
NMZ532>537-310100-
EASTCENTRAL PLAINS

CITY           SKY/WX    TMP DP  RH WIND       PRES   REMARKS
TUCUMCARI      MOSUNNY   95  46  18 SW20G25   29.91F
6HR MIN TEMP:  90; 6HR MAX TEMP:  98;

CANNON AFB     MOSUNNY   89  43  20 S12G18    29.99S
6HR MIN TEMP:  86; 6HR MAX TEMP:  94;

CLOVIS AIRPORT   N/A     90  46  22 S21       30.01S

$$
NMZ028-029-538-310100-
SOUTHEAST PLAINS

CITY           SKY/WX    TMP DP  RH WIND       PRES   REMARKS
ROSWELL        MOSUNNY   93  43  17 S10       29.94F
6HR MIN TEMP:  88; 6HR MAX TEMP:  96;

CARLSBAD       SUNNY     96  36  12 SE10      29.93S
6HR MIN TEMP:  92; 6HR MAX TEMP:  98;

HOBBS          SUNNY     91  45  19 E15       29.99S


$$



USA.gov is the U.S. government's official web portal to all federal, state and local government web resources and services.